Starlink 32133

operational
NORAD ID: 60333 Int'l Des: 2024-136 Owner: SPXS Country: US Constellation: starlink
LEOCIRCULAR

Über Starlink 32133

Beschreibung wird geladen...

Live-Position

3D-Globus wird geladen...

Nächste Überflüge

Höhenverlauf

Altitude vs Time

uPlot chart will show altitude changes over time

Zweizeiliger Elementsatz

1 60333U 24136E 25353.43365614 .00001700 00000-0 69547-4 0 9994
2 60333 53.1619 88.6910 0001191 90.4441 269.6697 15.30186298 77370
Epoch: 19. Dez. 2025 • Age: 21 hours

Aktueller Status

Höhe 475.7 km
Geschwindigkeit 7.63 km/s
Subsatellitenpunkt 23.94°N, 88.85°W
Startdatum 2. Aug. 2024
Alter 1.3 years
Typ internet

Technische Details

Klassifizierung Payload
Masse 730.00 kg
Trockenmasse 700.00 kg
Gesamtmasse 730.00 kg
Länge 0.30 m
Durchmesser 4.10 m
Spannweite 29.00 m
Form Box + pan
Hersteller SPXS
Bus-Typ Starlink V2M
Phasenstatus In Orbit
Besitzer/Staat SPXS/US

Große Konstellationen

Loading constellations...